Dewpoint
62 68 71 71 71 71 70 70 71 71 71 71 71 71 71 70 70 70 70 69 69 68 68 68 69 69 69 69 69 68 67 68 69 69 67 66 64 64 64 64 65 66 67
63 67 71 71 71 71 70 70 71 71 71 71 71 70 70 70 70 70 69 69 68 67 66 67 67 67 68 68 68 66 66 66 65 66 68 66 64 62 63 65 64 68 68
63 66 68 71 71 71 71 71 71 71 71 70 70 70 70 70 70 69 70 70 69 68 66 66 67 67 67 67 67 67 66 65 65 65 66 67 65 65 63 63 63 63 63
61 65 67 71 71 71 70 70 70 70 70 70 70 70 69 69 69 69 69 69 69 68 66 67 66 66 66 66 65 64 63 62 62 61 59 63 62 66 66 65 64 63 63
61 65 69 70 70 70 70 70 71 71 70 70 70 69 69 68 69 69 69 68 68 67 66 66 66 66 65 64 63 62 61 61 59 58 56 58 58 65 66 67 66 64 63
64 65 69 70 70 70 70 70 70 70 70 70 69 69 69 68 69 69 68 68 67 66 66 65 65 65 64 64 63 62 61 60 58 54 54 63 64 67 67 68 68 68 66
65 66 67 69 70 70 70 70 70 69 69 69 68 68 67 67 68 68 68 67 66 66 65 65 65 65 64 63 63 62 61 59 56 52 60 64 67 68 67 68 68 68 68
64 65 67 69 69 70 70 69 69 68 68 68 68 68 67 67 67 67 67 67 66 66 65 65 64 64 63 63 62 62 60 59 57 53 61 65 68 68 68 68 69 69 69
65 65 66 67 68 68 68 68 67 67 66 66 66 66 66 66 67 66 67 67 67 67 66 66 65 64 63 62 62 61 61 62 62 61 64 67 68 68 67 66 66 67 67
65 65 66 67 66 67 67 67 66 66 65 65 65 65 66 66 66 67 67 68 67 67 67 67 67 66 66 65 64 64 64 64 62 64 66 68 67 66 66 65 64 64 64
64 65 65 66 66 66 66 66 65 64 64 64 64 64 66 67 66 67 66 67 66 66 66 66 66 66 66 65 65 65 65 63 62 64 65 66 66 65 64 63 63 62 61
63 64 64 65 65 65 62 65 65 63 64 65 66 66 66 66 66 65 65 65 63 62 64 64 65 65 65 65 66 66 65 61 61 60 62 64 65 64 62 61 59 59 58
62 63 63 65 63 62 60 64 62 65 64 64 63 63 65 66 65 65 64 64 64 61 63 63 63 62 62 63 65 64 60 59 58 57 58 59 59 60 60 60 59 57 55
62 63 64 64 64 64 63 63 62 62 61 60 60 61 61 61 61 60 60 60 59 58 60 62 62 61 63 63 60 57 54 57 57 56 56 56 54 53 54 54 55 53 51
61 62 62 63 63 63 63 62 61 60 59 59 59 60 61 61 61 60 59 58 58 56 56 55 56 59 60 60 57 56 51 50 55 53 54 53 49 46 44 46 48 46 46
60 60 61 61 60 60 59 59 58 57 57 57 56 56 56 57 57 56 55 53 51 51 51 50 52 55 56 56 56 50 48 48 49 52 52 51 48 44 41 42 43 43 43
59 60 59 58 58 58 57 56 55 55 56 53 53 52 51 51 52 51 50 49 48 45 45 45 47 54 56 51 53 51 49 47 42 39 44 46 45 45 42 42 43 43 43
59 58 58 57 57 57 57 55 51 50 49 49 50 49 47 47 47 46 46 45 47 42 42 44 49 54 52 51 49 47 44 39 36 35 34 36 37 40 43 43 42 42 42
56 56 56 55 55 53 52 50 49 48 47 47 47 45 44 43 44 43 43 43 43 42 44 50 51 53 51 50 49 46 42 34 30 30 32 36 34 36 38 42 42 41 40
55 54 52 51 50 49 48 48 46 47 46 45 43 42 42 42 42 41 41 42 42 43 43 45 47 49 47 49 46 47 46 40 34 31 32 34 36 34 35 37 39 39 42
54 52 50 50 49 47 46 45 44 43 43 41 39 40 40 42 42 42 39 42 42 44 44 44 40 38 38 40 43 48 46 41 32 34 35 36 35 33 34 36 35 36 36
53 51 50 49 48 48 47 47 44 41 42 40 39 39 39 39 40 39 41 39 41 42 43 43 42 39 37 40 39 42 44 40 37 34 34 34 34 34 33 35 35 37 36
52 52 51 50 49 49 47 44 41 40 39 39 37 36 36 37 39 39 40 42 41 40 41 41 42 41 38 39 39 38 34 32 34 37 34 33 35 35 33 34 35 35 35
52 53 52 50 48 48 46 43 39 37 37 39 38 37 37 39 38 39 41 41 41 42 42 41 42 40 38 36 38 40 36 33 32 32 31 32 30 33 35 33 35 34 35
53 54 54 50 48 47 45 43 42 39 38 38 38 37 38 37 38 38 40 39 40 42 42 42 42 41 41 37 35 34 32 34 32 32 28 30 30 32 33 35 34 34 35
50 53 53 50 48 47 45 44 41 39 37 38 38 37 36 37 37 38 39 39 40 41 40 41 41 42 41 40 39 34 33 31 31 32 30 30 30 30 33 35 33 35 34
Wind_Speed
20 21 18 17 16 17 18 17 19 17 17 18 15 15 15 16 16 15 15 16 16 16 16 15 16 17 17 17 17 16 14 10 9 8 8 9 12 12 12 13 21 13 12
24 22 19 18 17 17 18 17 18 18 17 16 14 15 15 15 15 15 14 15 16 16 15 15 15 15 15 15 14 12 10 7 7 6 2 5 8 15 13 13 13 9 8
23 21 19 18 17 17 16 16 17 17 16 16 15 15 15 14 13 13 13 13 15 15 15 14 14 13 13 12 10 8 8 12 11 7 7 5 9 12 12 10 9 9 8
23 20 18 18 17 16 16 15 16 16 16 14 14 13 14 13 12 12 12 13 14 14 14 13 12 11 10 8 7 7 10 12 15 17 10 8 11 10 10 7 5 5 5
24 23 19 18 16 16 17 17 16 15 15 13 13 13 12 13 12 12 12 12 11 11 12 11 10 9 8 7 7 8 12 16 19 18 11 13 14 11 11 8 4 3 4
24 22 19 19 18 17 17 17 16 14 14 14 13 12 11 10 11 11 11 11 10 9 9 8 8 7 6 5 5 7 10 15 19 20 10 19 14 11 11 9 8 4 3
21 19 18 17 19 18 18 17 16 14 14 12 11 11 10 9 10 9 9 9 9 8 7 6 5 4 3 3 4 6 9 13 15 18 12 17 13 13 15 14 12 8 5
18 19 18 16 18 18 18 17 16 14 12 12 9 8 8 7 8 8 8 8 7 7 5 4 3 3 2 3 4 6 9 11 13 17 17 15 14 17 18 17 16 16 13
18 19 16 17 17 18 17 16 13 12 10 10 8 6 5 5 6 6 7 6 6 5 4 3 2 3 4 5 7 10 12 16 16 12 18 14 17 22 22 18 19 21 22
15 18 17 16 15 13 12 14 13 9 9 8 7 6 5 5 6 7 8 5 4 3 2 3 5 6 5 7 9 11 15 16 15 17 15 14 21 25 24 23 23 23 24
14 13 14 14 15 12 11 10 11 9 8 8 6 7 6 8 8 6 7 5 4 4 5 5 6 7 5 7 5 7 10 12 17 15 16 24 25 26 23 23 24 25 25
13 12 11 14 13 14 13 14 13 11 4 9 14 11 11 11 11 5 7 4 3 2 3 5 8 9 3 5 1 8 7 16 15 15 17 24 27 25 23 24 23 23 23
16 13 13 10 7 4 7 9 10 15 13 12 16 15 11 10 9 10 2 4 4 3 3 4 5 7 5 9 15 12 13 14 13 13 20 26 25 23 22 23 22 23 23
21 15 12 13 12 15 12 14 14 13 13 11 9 11 11 10 10 8 8 9 9 12 9 5 5 1 11 18 16 17 15 12 11 10 13 20 20 20 21 20 19 22 21
19 15 13 11 12 11 14 12 14 13 10 6 7 10 9 2 6 2 1 2 5 10 12 12 11 7 14 15 14 15 12 11 11 8 10 16 17 19 20 19 19 20 21
16 13 10 9 10 11 10 9 7 7 7 8 12 11 12 11 10 9 11 13 13 12 9 9 5 2 12 13 15 13 10 9 7 10 11 12 15 17 18 19 17 18 19
14 12 10 9 10 9 9 8 7 5 3 12 13 13 13 13 11 11 13 13 10 11 12 9 11 7 9 12 11 11 8 9 13 15 12 12 11 12 14 17 15 15 18
20 13 11 11 11 11 8 7 11 11 11 12 13 11 13 12 14 15 13 10 9 11 11 8 9 13 10 11 9 7 10 11 12 13 10 13 9 10 11 14 13 13 16
16 21 15 7 8 11 14 11 11 13 12 12 14 11 12 12 10 13 10 10 12 13 12 12 12 9 8 9 10 8 10 11 11 10 9 12 9 12 10 11 10 9 13
12 18 14 9 9 10 10 10 12 13 15 14 13 12 14 13 14 10 9 14 14 13 13 12 15 13 13 13 5 10 9 8 8 9 15 14 11 13 11 12 5 4 12
14 14 14 14 9 8 7 8 12 10 11 13 11 13 13 14 14 15 13 11 13 13 14 16 10 15 15 16 7 11 11 8 8 12 13 12 10 13 13 11 11 9 12
18 17 16 12 11 8 6 3 9 10 11 11 12 15 13 15 15 13 13 13 12 12 16 15 16 7 13 17 6 4 8 6 6 10 9 9 8 11 10 10 13 10 12
20 19 16 15 13 12 11 12 12 11 10 8 12 15 13 13 13 13 14 12 13 13 13 15 15 16 11 13 19 8 7 4 10 6 13 11 9 10 9 10 12 10 10
22 20 18 18 15 13 16 14 13 11 11 13 14 13 9 14 12 12 11 13 16 14 15 13 13 14 15 16 8 13 9 10 6 7 8 16 17 11 8 6 7 8 10
24 23 22 20 16 14 13 12 12 16 13 12 13 11 14 13 8 9 12 13 14 12 12 13 13 16 15 14 14 9 11 11 17 7 5 15 15 15 8 6 8 9 13
21 24 22 21 18 17 16 14 16 17 15 13 13 11 10 9 9 11 12 12 12 10 12 12 14 16 16 16 12 15 14 7 10 9 6 14 15 11 9 8 13 14 14
Wind_Direction
111 104 97 95 89 86 88 91 93 88 85 86 85 83 77 74 70 66 67 70 67 68 66 64 64 64 61 59 55 49 42 39 50 68 84 98 99 80 66 51 55 68 63
115 105 102 100 95 91 92 92 91 92 88 83 80 82 76 78 80 75 74 79 78 74 74 69 65 66 64 59 54 48 29 8 22 24 56 94 82 83 55 50 47 69 68
109 113 108 104 100 97 96 95 95 87 85 80 74 74 74 71 79 80 77 82 86 87 83 80 78 74 70 65 57 37 356 336 343 346 305 266 83 78 77 57 46 39 33
120 113 111 106 103 97 92 91 89 93 88 84 83 79 80 75 74 79 77 76 83 87 87 86 83 80 74 64 47 20 342 336 332 326 302 166 93 63 60 46 38 33 25
124 114 117 111 105 98 92 88 86 85 86 84 81 82 78 82 78 77 78 78 80 85 89 86 82 77 69 54 32 7 342 336 327 309 263 110 91 75 58 31 39 12 23
109 112 116 114 110 104 100 95 90 85 81 82 80 79 82 85 86 81 76 84 84 85 84 85 84 80 67 48 23 358 339 331 329 321 67 74 72 74 61 32 9 338 340
108 116 113 112 110 107 102 99 93 87 84 79 83 87 86 85 91 89 86 85 87 84 84 81 74 67 56 24 358 341 329 324 317 306 70 67 63 59 49 33 19 5 322
123 113 119 111 107 105 105 100 97 93 88 89 83 83 90 90 93 95 91 86 81 77 69 63 49 18 344 325 315 310 302 295 310 313 88 65 51 50 43 31 26 20 4
122 125 131 125 111 107 105 104 102 105 103 100 99 98 108 120 114 106 92 80 79 70 50 31 10 317 294 311 311 296 315 334 330 9 53 53 57 58 51 45 46 45 42
124 132 139 135 131 123 115 118 119 119 121 127 133 150 171 175 163 137 121 82 58 51 11 319 304 295 324 323 314 333 343 353 40 50 39 45 62 62 55 51 51 50 48
132 139 147 151 127 121 132 138 133 145 158 151 167 201 188 213 159 111 98 104 73 20 343 320 311 306 314 293 306 360 33 51 59 48 48 59 63 64 62 57 53 51 50
137 144 143 134 134 158 142 161 170 156 138 60 33 15 30 33 44 69 100 115 116 10 288 292 299 315 336 37 73 46 64 73 68 59 51 56 61 61 60 61 58 55 49
156 130 106 126 146 172 136 179 67 71 64 56 31 4 24 40 29 19 357 202 241 63 352 330 41 24 29 39 61 70 82 82 73 65 57 64 61 55 52 54 57 55 48
93 93 73 45 59 45 44 44 72 68 59 45 43 24 23 21 21 12 10 0 15 9 5 20 28 308 69 76 74 69 54 67 90 77 69 71 66 63 56 51 49 47 41
96 89 76 60 47 45 57 46 49 60 73 76 53 32 22 347 9 257 339 346 32 21 13 6 25 40 80 84 79 79 75 67 83 89 87 83 80 71 65 55 53 48 43
105 102 104 102 79 74 72 75 75 95 126 108 53 37 29 35 8 9 31 30 23 34 352 12 357 8 103 89 81 80 95 110 121 161 129 96 90 83 76 71 58 49 46
112 119 120 118 108 112 125 129 121 146 134 76 78 41 38 33 9 21 45 31 11 19 13 19 330 70 71 103 116 129 112 70 56 51 82 122 108 95 83 80 73 55 48
126 136 154 136 155 150 139 104 69 55 72 77 81 61 47 35 24 38 45 15 350 39 18 357 345 81 56 67 59 104 120 106 85 75 73 68 40 125 97 85 80 67 55
136 134 123 109 116 122 106 112 105 80 71 73 66 50 59 36 41 64 42 9 29 46 16 8 26 52 136 145 148 97 85 81 73 92 78 86 66 63 77 106 100 93 66
109 92 86 92 87 73 73 95 80 82 65 54 62 54 44 40 21 79 67 48 48 40 23 17 28 23 22 10 54 104 84 76 104 86 71 49 21 66 56 52 99 126 37
144 138 151 148 122 127 142 139 116 107 98 91 76 69 52 44 38 33 39 54 64 50 36 18 51 48 29 2 336 148 133 139 98 79 84 83 26 58 39 61 46 24 28
162 161 149 145 141 124 124 38 84 96 91 113 104 82 62 58 47 44 44 41 62 53 46 22 26 87 60 35 357 306 152 128 121 103 91 80 88 74 45 40 44 26 34
166 164 156 157 158 169 137 109 95 106 123 144 96 78 68 62 64 56 45 45 48 58 58 38 24 23 73 59 47 44 33 27 336 148 86 49 72 77 65 37 45 21 28
167 161 164 164 174 141 142 139 150 147 110 75 71 88 72 60 62 54 56 58 62 50 45 50 32 35 47 42 34 43 78 69 17 349 358 29 20 16 71 57 55 19 30
167 166 169 165 157 154 135 156 123 114 114 105 100 95 77 64 69 69 62 63 75 70 63 56 52 48 36 51 44 25 23 45 24 32 333 349 5 338 7 63 52 35 31
171 164 164 167 162 162 161 157 136 133 126 124 134 125 121 112 83 78 80 63 64 79 77 65 59 50 51 39 38 51 51 38 18 22 343 348 341 334 347 27 32 43 28